Location: Unspecified
(41.5000°N, 0.0000°E)
Time: 18:17:15
(UTC+00:00)

Vanguard 1 - Pass Details

Date: 21 June 2019
Orbit: 653 x 3830 km, 34.3° (Epoch: 20 July)

Event Time Altitude Azimuth Distance (km) Brightness Sun altitude
Exits shadow 23:01:19 13° 126° (SE) 5,937 13.6 -23.6°
Drops below altitude 10° 23:05:13 10° 113° (ESE) 5,915 13.7 -23.7°
Sets 23:12:29 0° 92° (E) 6,283 14.0 -24.1°
